Location: American Medical Response
(33.3472°N, 96.5511°W)
Time: 04:21:19
(UTC+00:00)

H-2A R/B - Pass Details

Date: 05 July 2022
Orbit: 576 x 652 km, 98.5° (Epoch: 17 August)

Event Time Altitude Azimuth Distance (km) Brightness Sun altitude
Rises 02:05:07 0° 24° (NNE) 2,950 5.7 -5.5°
Reaches altitude 10° 02:07:30 10° 33° (NNE) 2,046 4.7 -5.9°
Maximum altitude 02:11:33 34° 99° (E) 1,071 2.8 -6.6°
Drops below altitude 10° 02:15:37 10° 164° (SSE) 2,049 4.3 -7.3°
Sets 02:18:00 0° 173° (S) 2,956 5.2 -7.7°
